Weather History for Mountain Home, AR

Change the Weather History Date:

Friday, February 10, 2012

  Actual Average (KHRO) Record (KHRO)
Temperature  
Mean Temperature 33 °F 39 °F  
Max Temperature 41 °F 50 °F 79 °F (1922)
Min Temperature 23 °F 29 °F -17 °F (1929)
Degree Days  
Heating Degree Days 32 26  
Month to date heating degree days 265  
Since 1 July heating degree days 2751  
Cooling Degree Days 0 0  
Month to date cooling degree days 0  
Year to date cooling degree days 0  
Moisture  
Dew Point 32 °F    
Average Humidity 89    
Maximum Humidity 100    
Minimum Humidity 51    
Precipitation  
Precipitation 0.10 in 0.09 in 1.91 in (1966)
Month to date precipitation 0.89  
Year to date precipitation 3.45  
Snow  
Snow 0.00 in 0.10 in 3.50 in (1986)
Month to date snowfall 1.4  
Since 1 July snowfall 7.4  
Snow Depth -    
Sea Level Pressure  
Sea Level Pressure 30.10 in    
Wind  
Wind Speed 6 mph (SW)    
Max Wind Speed 13 mph    
Max Gust Speed 26 mph    
Visibility 4 miles    
Events Rain    
T = Trace of Precipitation, MM = Missing Value Source: NWS Daily Summary

Daily Weather History Graph

Daily Weather History Graph

Search for Another Location

Airport:

Trip Planner

Search our weather history database for the weather conditions in past years. The results will help you decide how hot, cold, wet, or windy it might be!

Date:

Astronomy

Feb. 10, 2012 Rise Set
Actual Time 7:03 AM CST 5:45 PM CST
Civil Twilight 6:36 AM CST 6:11 PM CST
Nautical Twilight 6:06 AM CST 6:42 PM CST
Astronomical Twilight 5:36 AM CST 7:12 PM CST
Moon 9:15 PM CST (2/10) 8:19 AM CST (2/10)
Length of Visible Light 11h 35m
Length of Day
10h 41m
Waning Gibbous, 90% of the Moon is Illuminated
Feb 10
Waning Gibbous
Feb 14
Last Quarter
Feb 21
New
Feb 29
First Quarter
Mar 8
Full

Hourly Weather History & Observations

Time (CST) Temp. Windchill Dew Point Humidity Pressure Visibility Wind Dir Wind Speed Gust Speed Precip Events Conditions
12:53 AM 37.0 °F 33.3 °F 30.9 °F 79% 30.15 in 7.0 mi South 4.6 mph - N/A   Overcast
1:53 AM 37.0 °F 33.3 °F 32.0 °F 82% 30.14 in 7.0 mi SSE 4.6 mph - 0.00 in   Overcast
2:53 AM 37.0 °F 34.5 °F 33.1 °F 86% 30.12 in 6.0 mi South 3.5 mph - 0.01 in Rain Light Rain
3:53 AM 36.0 °F 30.3 °F 34.0 °F 93% 30.10 in 4.0 mi South 6.9 mph - 0.04 in Rain Light Rain
4:02 AM 35.6 °F 30.7 °F 33.8 °F 93% 30.09 in 4.0 mi South 5.8 mph - 0.00 in Rain Light Rain
4:53 AM 36.0 °F 31.1 °F 34.0 °F 93% 30.10 in 4.0 mi South 5.8 mph - 0.04 in Rain Light Rain
5:21 AM 35.6 °F 30.7 °F 35.6 °F 100% 30.08 in 4.0 mi South 5.8 mph - 0.01 in Rain Light Rain
5:30 AM 35.6 °F 30.7 °F 35.6 °F 100% 30.08 in 3.0 mi South 5.8 mph - 0.01 in Rain Light Rain
5:53 AM 35.1 °F 30.1 °F 35.1 °F 100% 30.10 in 3.0 mi South 5.8 mph - 0.03 in Rain Light Rain
6:48 AM 35.6 °F 30.7 °F 35.6 °F 100% 30.07 in 3.0 mi South 5.8 mph - 0.01 in   Overcast
6:53 AM 35.1 °F 30.1 °F 35.1 °F 100% 30.09 in 3.0 mi South 5.8 mph - 0.01 in   Overcast
7:00 AM 35.6 °F 30.7 °F 35.6 °F 100% 30.07 in 2.5 mi South 5.8 mph - 0.00 in Rain Light Rain
7:08 AM 35.6 °F 31.7 °F 35.6 °F 100% 30.08 in 2.5 mi South 4.6 mph - 0.00 in Rain Light Rain
7:53 AM 35.1 °F 28.6 °F 35.1 °F 100% 30.09 in 2.0 mi South 8.1 mph - 0.00 in   Overcast
8:06 AM 35.6 °F 29.9 °F 35.6 °F 100% 30.08 in 1.5 mi South 6.9 mph - N/A   Overcast
8:46 AM 35.6 °F 31.7 °F 35.6 °F 100% 30.08 in 2.0 mi South 4.6 mph - 0.00 in Rain Light Rain
8:53 AM 36.0 °F 32.1 °F 35.1 °F 97% 30.09 in 2.0 mi South 4.6 mph - 0.00 in   Overcast
9:53 AM 36.0 °F 32.1 °F 36.0 °F 100% 30.09 in 2.5 mi South 4.6 mph - N/A   Overcast
10:00 AM 37.4 °F 34.9 °F 35.6 °F 93% 30.07 in 3.0 mi South 3.5 mph - N/A   Overcast
10:45 AM 37.4 °F 33.8 °F 37.4 °F 100% 30.08 in 3.0 mi SSW 4.6 mph - 0.00 in   Overcast
10:53 AM 37.9 °F 35.5 °F 37.0 °F 97% 30.09 in 3.0 mi SSW 3.5 mph - 0.00 in   Overcast
11:53 AM 39.0 °F 36.8 °F 37.9 °F 96% 30.08 in 4.0 mi WSW 3.5 mph - N/A   Overcast
12:03 PM 39.2 °F 37.0 °F 39.2 °F 100% 30.06 in 3.0 mi SW 3.5 mph - N/A   Overcast
12:10 PM 39.2 °F - 39.2 °F 100% 30.05 in 2.5 mi Calm Calm - N/A   Overcast
12:24 PM 39.2 °F - 39.2 °F 100% 30.04 in 1.8 mi Calm Calm - N/A   Overcast
12:35 PM 39.2 °F - 39.2 °F 100% 30.04 in 2.0 mi Calm Calm - N/A   Overcast
12:53 PM 39.9 °F 37.8 °F 39.0 °F 97% 30.04 in 2.5 mi Variable 3.5 mph - N/A   Overcast
1:10 PM 39.2 °F 37.0 °F 39.2 °F 100% 30.03 in 2.5 mi Variable 3.5 mph - N/A   Overcast
1:15 PM 39.2 °F 35.0 °F 39.2 °F 100% 30.03 in 3.0 mi Variable 5.8 mph - N/A   Overcast
1:32 PM 41.0 °F 35.2 °F 39.2 °F 93% 30.02 in 5.0 mi WNW 9.2 mph 16.1 mph N/A   Overcast
1:39 PM 39.2 °F 32.0 °F 37.4 °F 93% 30.02 in 5.0 mi NW 11.5 mph 19.6 mph N/A   Overcast
1:53 PM 39.9 °F 36.7 °F 37.9 °F 93% 30.04 in 5.0 mi Variable 4.6 mph - N/A   Overcast
2:50 PM 37.4 °F 32.8 °F 35.6 °F 93% 30.05 in 5.0 mi Variable 5.8 mph 21.9 mph N/A   Overcast
2:53 PM 39.0 °F 33.4 °F 35.1 °F 86% 30.06 in 5.0 mi NW 8.1 mph 21.9 mph N/A   Overcast
3:00 PM 39.2 °F 34.2 °F 33.8 °F 81% 30.05 in 6.0 mi Variable 6.9 mph 17.3 mph N/A   Haze
3:53 PM 37.9 °F 32.1 °F 33.1 °F 83% 30.07 in 6.0 mi NW 8.1 mph - N/A   Haze
4:07 PM 35.6 °F 29.2 °F 32.0 °F 87% 30.07 in 3.0 mi NW 8.1 mph 25.3 mph N/A   Overcast
4:53 PM 34.0 °F 25.0 °F 28.9 °F 82% 30.13 in 4.0 mi NW 12.7 mph 23.0 mph N/A   Haze
5:23 PM 33.8 °F 27.7 °F 28.4 °F 81% 30.13 in 5.0 mi Variable 6.9 mph 18.4 mph N/A   Haze
5:53 PM 33.1 °F 26.1 °F 27.0 °F 78% 30.17 in 7.0 mi NW 8.1 mph - N/A   Overcast
6:28 PM 32.0 °F 24.2 °F 24.8 °F 75% 30.17 in 7.0 mi NW 9.2 mph 19.6 mph N/A   Scattered Clouds
6:53 PM 32.0 °F 23.0 °F 24.1 °F 73% 30.20 in 8.0 mi NW 11.5 mph 20.7 mph N/A   Overcast
7:53 PM 30.0 °F 21.1 °F 17.1 °F 59% 30.23 in 10.0 mi NW 10.4 mph 21.9 mph N/A   Clear
8:53 PM 28.9 °F 18.6 °F 12.9 °F 51% 30.25 in 10.0 mi NNW 12.7 mph 19.6 mph N/A   Clear
9:53 PM 27.0 °F 17.3 °F 10.9 °F 51% 30.28 in 10.0 mi NNW 10.4 mph 26.5 mph N/A   Clear
10:53 PM 25.0 °F 14.8 °F 9.0 °F 51% 30.30 in 10.0 mi NNW 10.4 mph 19.6 mph N/A   Clear
11:54 PM 23.0 °F 13.1 °F 9.0 °F 55% 30.31 in 10.0 mi NNW 9.2 mph 19.6 mph N/A   Unknown